QPF
0.02 0.03 0.04 0.04 0.04 0.03 0.04 0.04 0.03 0.03 0.03 0.03 0.03 0.03 0.03 0.03 0.03 0.03 0.03 0.03 0.03 0.03 0.02 0.02 0.03 0.02 0.02 0.03 0.05 0.05 0.05 0.05 0.04 0.03 0.03 0.02 0.01 0.01 0.01 0.01 0.01 0.01 0.01
0.03 0.03 0.04 0.04 0.04 0.04 0.04 0.04 0.04 0.04 0.03 0.03 0.03 0.03 0.03 0.02 0.02 0.03 0.03 0.03 0.03 0.03 0.03 0.03 0.03 0.02 0.02 0.02 0.03 0.05 0.05 0.05 0.04 0.04 0.03 0.02 0.02 0.01 0.02 0.02 0.02 0.02 0.02
0.03 0.06 0.06 0.05 0.04 0.03 0.03 0.04 0.06 0.07 0.06 0.04 0.03 0.03 0.03 0.03 0.03 0.04 0.05 0.05 0.04 0.03 0.03 0.03 0.02 0.02 0.02 0.02 0.02 0.02 0.04 0.05 0.05 0.05 0.05 0.05 0.04 0.03 0.03 0.02 0.02 0.02 0.02
0.02 0.06 0.07 0.06 0.04 0.03 0.03 0.05 0.06 0.08 0.07 0.06 0.05 0.03 0.03 0.04 0.05 0.05 0.05 0.04 0.02 0.02 0.02 0.02 0.01 0.01 0.01 0.01 0.01 0.01 0.02 0.03 0.02 0.03 0.04 0.05 0.04 0.03 0.02 0.02 0.01 0.02 0.02
0.02 0.04 0.05 0.05 0.03 0.03 0.04 0.06 0.07 0.06 0.06 0.06 0.06 0.05 0.05 0.05 0.04 0.05 0.05 0.04 0.02 0.02 0.02 0.02 0.02 0.02 0.01 0.01 0.01 0.01 0.02 0.01 0.01 0.01 0.02 0.02 0.01 0.01 0.01 0.01 0.01 0.02 0.02
0.01 0.03 0.04 0.04 0.03 0.04 0.04 0.05 0.06 0.06 0.05 0.05 0.05 0.05 0.05 0.06 0.06 0.05 0.04 0.03 0.02 0.01 0.01 0.01 0.02 0.02 0.01 0.02 0.01 0.01 0.01 0.01 0.02 0.02 0.01 0.01 0.01 0.01 0.01 0.01 0.01 0.01 0.02
0.01 0.02 0.03 0.04 0.04 0.03 0.05 0.05 0.06 0.06 0.06 0.05 0.04 0.04 0.05 0.05 0.04 0.03 0.03 0.03 0.02 0.01 0.01 0.01 0.02 0.02 0.01 0.01 0.01 0.01 0.01 0.01 0.01 0.01 0.01 0.01 0.01 0.01 0.01 0.01 0.01 0.01 0.02
0.01 0.02 0.04 0.04 0.04 0.03 0.02 0.03 0.04 0.04 0.04 0.04 0.03 0.03 0.03 0.03 0.03 0.02 0.02 0.02 0.02 0.02 0.02 0.01 0.01 0.01 0.01 0.01 0.01 0.00 0.00 0.01 0.01 0.01 0.01 0.01 0.01 0.01 0.01 0.01 0.01 0.01 0.02
0.01 0.02 0.04 0.04 0.03 0.02 0.02 0.02 0.03 0.04 0.04 0.03 0.02 0.02 0.02 0.02 0.02 0.02 0.02 0.02 0.01 0.01 0.01 0.01 0.01 0.01 0.01 0.01 0.01 0.00 0.00 0.00 0.00 0.00 0.00 0.00 0.00 0.00 0.00 0.00 0.00 0.01 0.01
0.01 0.02 0.04 0.04 0.03 0.02 0.02 0.02 0.03 0.03 0.04 0.03 0.02 0.02 0.02 0.02 0.01 0.02 0.02 0.02 0.02 0.01 0.01 0.01 0.01 0.01 0.01 0.01 0.00 0.00 0.00 0.00 0.00 0.00 0.00 0.01 0.01 0.01 0.01 0.01 0.01 0.01 0.01
0.02 0.02 0.04 0.03 0.02 0.02 0.02 0.02 0.02 0.02 0.03 0.02 0.02 0.02 0.02 0.02 0.01 0.02 0.02 0.02 0.02 0.02 0.02 0.01 0.01 0.01 0.01 0.01 0.01 0.00 0.00 0.00 0.00 0.00 0.00 0.00 0.01 0.01 0.01 0.01 0.01 0.01 0.01
0.02 0.03 0.04 0.03 0.02 0.01 0.01 0.01 0.01 0.01 0.02 0.02 0.02 0.02 0.02 0.02 0.02 0.02 0.01 0.02 0.02 0.02 0.01 0.01 0.02 0.02 0.01 0.01 0.01 0.01 0.01 0.00 0.00 0.00 0.00 0.00 0.00 0.00 0.01 0.01 0.01 0.01 0.01
0.02 0.03 0.04 0.03 0.02 0.02 0.01 0.01 0.01 0.02 0.02 0.02 0.01 0.01 0.02 0.02 0.02 0.02 0.01 0.02 0.03 0.02 0.02 0.02 0.02 0.02 0.02 0.01 0.01 0.01 0.01 0.01 0.00 0.00 0.00 0.00 0.00 0.00 0.00 0.01 0.01 0.01 0.01
0.03 0.03 0.03 0.03 0.03 0.03 0.02 0.02 0.02 0.02 0.02 0.01 0.01 0.01 0.01 0.02 0.02 0.02 0.02 0.02 0.02 0.02 0.02 0.02 0.03 0.03 0.02 0.01 0.01 0.01 0.01 0.01 0.01 0.01 0.01 0.01 0.01 0.01 0.01 0.01 0.01 0.01 0.01
0.03 0.03 0.03 0.03 0.02 0.02 0.03 0.03 0.03 0.03 0.03 0.03 0.02 0.02 0.02 0.02 0.02 0.02 0.02 0.02 0.02 0.02 0.02 0.02 0.02 0.01 0.01 0.01 0.01 0.01 0.01 0.01 0.01 0.01 0.01 0.01 0.01 0.01 0.01 0.01 0.01 0.01 0.01
0.02 0.02 0.02 0.02 0.02 0.02 0.02 0.02 0.02 0.02 0.03 0.04 0.03 0.03 0.02 0.02 0.03 0.03 0.03 0.03 0.03 0.03 0.02 0.03 0.03 0.02 0.01 0.01 0.01 0.01 0.01 0.01 0.02 0.02 0.02 0.02 0.02 0.02 0.01 0.01 0.01 0.01 0.01
0.02 0.02 0.02 0.03 0.02 0.01 0.02 0.01 0.01 0.02 0.02 0.03 0.04 0.04 0.03 0.03 0.03 0.04 0.03 0.03 0.03 0.03 0.03 0.03 0.03 0.02 0.02 0.01 0.01 0.01 0.01 0.02 0.02 0.02 0.02 0.02 0.02 0.01 0.01 0.01 0.01 0.01 0.01
0.03 0.03 0.03 0.03 0.02 0.02 0.02 0.02 0.01 0.01 0.02 0.02 0.02 0.03 0.03 0.03 0.03 0.03 0.04 0.03 0.03 0.02 0.02 0.03 0.03 0.02 0.02 0.02 0.01 0.01 0.01 0.02 0.02 0.03 0.02 0.01 0.01 0.01 0.01 0.01 0.02 0.02 0.02
0.03 0.03 0.03 0.03 0.03 0.02 0.02 0.02 0.01 0.01 0.01 0.02 0.03 0.03 0.02 0.03 0.03 0.03 0.03 0.03 0.02 0.02 0.02 0.02 0.02 0.01 0.02 0.02 0.02 0.02 0.02 0.02 0.02 0.02 0.02 0.01 0.01 0.01 0.01 0.02 0.02 0.03 0.02
0.02 0.02 0.03 0.02 0.03 0.02 0.02 0.02 0.02 0.02 0.02 0.02 0.03 0.03 0.03 0.02 0.01 0.02 0.02 0.02 0.02 0.02 0.03 0.02 0.01 0.01 0.01 0.02 0.02 0.02 0.03 0.02 0.02 0.01 0.01 0.01 0.02 0.02 0.02 0.03 0.03 0.03 0.03
0.03 0.03 0.03 0.03 0.02 0.02 0.02 0.02 0.03 0.04 0.05 0.04 0.04 0.04 0.03 0.02 0.01 0.01 0.01 0.02 0.02 0.03 0.02 0.02 0.02 0.02 0.02 0.02 0.02 0.02 0.01 0.01 0.01 0.00 0.01 0.01 0.01 0.02 0.03 0.03 0.03 0.03 0.03
0.03 0.03 0.03 0.03 0.03 0.02 0.02 0.02 0.02 0.03 0.04 0.05 0.05 0.04 0.03 0.03 0.02 0.03 0.03 0.04 0.04 0.02 0.02 0.01 0.01 0.01 0.01 0.01 0.01 0.02 0.01 0.01 0.01 0.00 0.01 0.01 0.02 0.03 0.03 0.03 0.03 0.03 0.03
0.02 0.02 0.02 0.03 0.03 0.02 0.01 0.01 0.01 0.01 0.02 0.02 0.03 0.04 0.04 0.03 0.02 0.03 0.03 0.03 0.03 0.03 0.02 0.02 0.01 0.01 0.01 0.01 0.01 0.01 0.01 0.01 0.01 0.01 0.01 0.01 0.02 0.03 0.03 0.03 0.03 0.03 0.03
0.03 0.02 0.02 0.02 0.02 0.01 0.01 0.01 0.01 0.01 0.01 0.02 0.03 0.04 0.04 0.04 0.03 0.03 0.03 0.03 0.03 0.03 0.02 0.02 0.02 0.02 0.01 0.01 0.01 0.01 0.01 0.01 0.01 0.01 0.01 0.01 0.02 0.02 0.03 0.03 0.03 0.03 0.03
0.02 0.01 0.01 0.01 0.01 0.01 0.01 0.01 0.01 0.01 0.02 0.02 0.03 0.04 0.05 0.04 0.04 0.04 0.04 0.04 0.04 0.03 0.03 0.02 0.02 0.02 0.02 0.01 0.01 0.01 0.01 0.01 0.01 0.01 0.01 0.02 0.02 0.02 0.02 0.03 0.03 0.03 0.03
0.01 0.01 0.01 0.01 0.01 0.01 0.01 0.01 0.01 0.01 0.02 0.02 0.03 0.03 0.04 0.05 0.06 0.06 0.06 0.05 0.04 0.04 0.03 0.02 0.02 0.02 0.02 0.02 0.02 0.02 0.02 0.02 0.01 0.02 0.01 0.02 0.02 0.02 0.02 0.03 0.03 0.03 0.03
MSLP
1021.03 1021.23 1021.46 1021.69 1021.90 1022.08 1022.22 1022.34 1022.46 1022.59 1022.76 1022.98 1023.26 1023.58 1023.93 1024.29 1024.62 1024.92 1025.15 1025.30 1025.38 1025.38 1025.33 1025.25 1025.16 1025.08 1025.05 1025.08 1025.19 1025.37 1025.62 1025.92 1026.23 1026.53 1026.79 1026.97 1027.06 1027.07 1026.99 1026.86 1026.70 1026.54 1026.41
1021.60 1021.78 1021.97 1022.17 1022.36 1022.52 1022.67 1022.81 1022.95 1023.12 1023.32 1023.58 1023.88 1024.23 1024.60 1024.98 1025.35 1025.68 1025.96 1026.17 1026.30 1026.36 1026.36 1026.31 1026.23 1026.15 1026.10 1026.10 1026.17 1026.32 1026.53 1026.79 1027.08 1027.36 1027.60 1027.77 1027.85 1027.83 1027.73 1027.56 1027.36 1027.16 1026.99
1022.15 1022.33 1022.52 1022.70 1022.89 1023.06 1023.23 1023.40 1023.58 1023.78 1024.02 1024.29 1024.60 1024.94 1025.31 1025.68 1026.06 1026.40 1026.71 1026.97 1027.16 1027.29 1027.35 1027.36 1027.33 1027.29 1027.26 1027.26 1027.32 1027.44 1027.63 1027.86 1028.12 1028.38 1028.59 1028.73 1028.78 1028.73 1028.59 1028.37 1028.12 1027.86 1027.62
1022.64 1022.84 1023.04 1023.25 1023.46 1023.67 1023.88 1024.10 1024.33 1024.57 1024.83 1025.11 1025.42 1025.74 1026.07 1026.41 1026.76 1027.09 1027.41 1027.69 1027.93 1028.12 1028.26 1028.35 1028.39 1028.41 1028.43 1028.46 1028.53 1028.64 1028.80 1029.01 1029.23 1029.45 1029.62 1029.73 1029.74 1029.66 1029.48 1029.23 1028.93 1028.62 1028.32
1023.03 1023.28 1023.52 1023.78 1024.04 1024.31 1024.58 1024.86 1025.15 1025.44 1025.72 1026.01 1026.29 1026.58 1026.86 1027.15 1027.44 1027.74 1028.04 1028.34 1028.61 1028.86 1029.07 1029.23 1029.36 1029.45 1029.52 1029.59 1029.67 1029.78 1029.92 1030.09 1030.27 1030.44 1030.58 1030.64 1030.63 1030.52 1030.33 1030.05 1029.73 1029.38 1029.04
1023.30 1023.60 1023.91 1024.23 1024.56 1024.90 1025.25 1025.60 1025.95 1026.29 1026.61 1026.90 1027.16 1027.41 1027.64 1027.86 1028.10 1028.35 1028.62 1028.91 1029.21 1029.49 1029.76 1030.00 1030.19 1030.34 1030.46 1030.56 1030.65 1030.75 1030.86 1030.99 1031.12 1031.24 1031.34 1031.38 1031.34 1031.23 1031.04 1030.77 1030.45 1030.10 1029.75
1023.44 1023.80 1024.17 1024.56 1024.96 1025.38 1025.81 1026.24 1026.65 1027.04 1027.39 1027.69 1027.94 1028.15 1028.34 1028.51 1028.70 1028.91 1029.15 1029.42 1029.73 1030.04 1030.35 1030.63 1030.88 1031.08 1031.23 1031.34 1031.42 1031.49 1031.57 1031.64 1031.72 1031.80 1031.85 1031.87 1031.83 1031.73 1031.57 1031.34 1031.06 1030.75 1030.43
1023.45 1023.87 1024.31 1024.76 1025.23 1025.72 1026.21 1026.70 1027.17 1027.60 1027.98 1028.30 1028.55 1028.75 1028.91 1029.06 1029.21 1029.39 1029.62 1029.88 1030.19 1030.52 1030.86 1031.17 1031.44 1031.65 1031.81 1031.92 1031.98 1032.02 1032.04 1032.06 1032.09 1032.11 1032.13 1032.14 1032.11 1032.04 1031.92 1031.76 1031.55 1031.30 1031.04
1023.37 1023.84 1024.33 1024.83 1025.35 1025.88 1026.42 1026.96 1027.47 1027.93 1028.34 1028.68 1028.94 1029.15 1029.32 1029.46 1029.62 1029.80 1030.03 1030.30 1030.62 1030.96 1031.31 1031.63 1031.90 1032.12 1032.27 1032.35 1032.38 1032.37 1032.34 1032.31 1032.28 1032.27 1032.26 1032.26 1032.24 1032.21 1032.15 1032.05 1031.92 1031.76 1031.57
1023.24 1023.75 1024.26 1024.79 1025.34 1025.90 1026.46 1027.01 1027.54 1028.03 1028.45 1028.82 1029.11 1029.35 1029.55 1029.73 1029.92 1030.13 1030.39 1030.68 1031.02 1031.37 1031.72 1032.04 1032.31 1032.51 1032.64 1032.69 1032.68 1032.63 1032.56 1032.48 1032.42 1032.37 1032.34 1032.34 1032.34 1032.33 1032.32 1032.29 1032.23 1032.13 1032.01
1023.08 1023.61 1024.15 1024.69 1025.24 1025.80 1026.36 1026.90 1027.43 1027.92 1028.36 1028.75 1029.08 1029.37 1029.63 1029.87 1030.12 1030.38 1030.68 1031.02 1031.38 1031.74 1032.10 1032.41 1032.67 1032.85 1032.95 1032.98 1032.94 1032.86 1032.76 1032.66 1032.57 1032.50 1032.47 1032.46 1032.46 1032.48 1032.50 1032.50 1032.48 1032.44 1032.35
1022.92 1023.46 1024.00 1024.54 1025.08 1025.62 1026.15 1026.67 1027.18 1027.66 1028.11 1028.53 1028.90 1029.25 1029.57 1029.89 1030.21 1030.55 1030.91 1031.29 1031.68 1032.06 1032.41 1032.72 1032.96 1033.12 1033.21 1033.22 1033.18 1033.09 1032.98 1032.88 1032.78 1032.72 1032.68 1032.67 1032.68 1032.70 1032.72 1032.73 1032.72 1032.68 1032.60
1022.73 1023.29 1023.83 1024.36 1024.88 1025.38 1025.88 1026.37 1026.85 1027.32 1027.77 1028.20 1028.62 1029.02 1029.41 1029.80 1030.20 1030.61 1031.03 1031.45 1031.87 1032.26 1032.62 1032.92 1033.15 1033.31 1033.39 1033.41 1033.37 1033.30 1033.22 1033.13 1033.06 1033.01 1032.98 1032.97 1032.97 1032.98 1032.98 1032.96 1032.92 1032.86 1032.76
1022.51 1023.07 1023.62 1024.14 1024.63 1025.11 1025.57 1026.03 1026.48 1026.92 1027.37 1027.82 1028.26 1028.71 1029.16 1029.62 1030.09 1030.56 1031.02 1031.48 1031.92 1032.32 1032.67 1032.96 1033.19 1033.35 1033.44 1033.48 1033.48 1033.46 1033.42 1033.38 1033.35 1033.33 1033.32 1033.32 1033.31 1033.29 1033.25 1033.19 1033.10 1032.98 1032.83
1022.22 1022.79 1023.34 1023.85 1024.33 1024.79 1025.23 1025.65 1026.08 1026.50 1026.94 1027.39 1027.85 1028.33 1028.83 1029.33 1029.84 1030.35 1030.85 1031.33 1031.77 1032.17 1032.52 1032.81 1033.04 1033.21 1033.33 1033.41 1033.46 1033.50 1033.53 1033.56 1033.59 1033.61 1033.63 1033.64 1033.62 1033.58 1033.50 1033.39 1033.24 1033.05 1032.84
1021.85 1022.43 1022.98 1023.49 1023.97 1024.41 1024.83 1025.24 1025.64 1026.05 1026.47 1026.92 1027.39 1027.88 1028.40 1028.92 1029.45 1029.98 1030.49 1030.97 1031.41 1031.80 1032.14 1032.43 1032.67 1032.86 1033.02 1033.15 1033.27 1033.38 1033.49 1033.59 1033.69 1033.77 1033.84 1033.86 1033.85 1033.79 1033.68 1033.52 1033.32 1033.09 1032.83
1021.42 1022.00 1022.55 1023.06 1023.54 1023.98 1024.38 1024.78 1025.16 1025.56 1025.96 1026.40 1026.86 1027.34 1027.85 1028.38 1028.91 1029.43 1029.93 1030.40 1030.83 1031.22 1031.55 1031.84 1032.10 1032.32 1032.52 1032.72 1032.91 1033.09 1033.28 1033.47 1033.64 1033.78 1033.89 1033.94 1033.94 1033.88 1033.76 1033.58 1033.36 1033.10 1032.81
1020.97 1021.54 1022.08 1022.59 1023.06 1023.50 1023.90 1024.28 1024.64 1025.01 1025.40 1025.80 1026.24 1026.70 1027.19 1027.69 1028.20 1028.70 1029.19 1029.64 1030.06 1030.44 1030.78 1031.09 1031.37 1031.63 1031.88 1032.14 1032.39 1032.66 1032.92 1033.18 1033.41 1033.62 1033.77 1033.86 1033.89 1033.85 1033.74 1033.57 1033.35 1033.10 1032.82
1020.56 1021.11 1021.63 1022.13 1022.59 1023.00 1023.39 1023.74 1024.09 1024.43 1024.77 1025.14 1025.54 1025.96 1026.41 1026.88 1027.36 1027.84 1028.30 1028.74 1029.16 1029.54 1029.89 1030.22 1030.53 1030.84 1031.15 1031.46 1031.78 1032.11 1032.44 1032.76 1033.05 1033.31 1033.50 1033.64 1033.71 1033.70 1033.63 1033.49 1033.31 1033.10 1032.87
1020.27 1020.77 1021.26 1021.72 1022.15 1022.54 1022.89 1023.21 1023.52 1023.81 1024.12 1024.44 1024.78 1025.15 1025.55 1025.98 1026.42 1026.87 1027.31 1027.75 1028.16 1028.56 1028.94 1029.30 1029.66 1030.01 1030.37 1030.74 1031.12 1031.50 1031.88 1032.25 1032.59 1032.88 1033.13 1033.30 1033.41 1033.46 1033.44 1033.36 1033.24 1033.09 1032.93
1020.12 1020.56 1020.99 1021.40 1021.78 1022.12 1022.43 1022.70 1022.96 1023.20 1023.44 1023.70 1023.99 1024.31 1024.66 1025.04 1025.44 1025.86 1026.29 1026.72 1027.15 1027.57 1027.98 1028.38 1028.79 1029.19 1029.60 1030.02 1030.45 1030.88 1031.29 1031.70 1032.07 1032.40 1032.68 1032.89 1033.05 1033.15 1033.19 1033.18 1033.14 1033.07 1032.98
1020.13 1020.49 1020.85 1021.19 1021.50 1021.78 1022.02 1022.24 1022.43 1022.61 1022.80 1022.99 1023.22 1023.48 1023.78 1024.12 1024.48 1024.88 1025.30 1025.73 1026.17 1026.61 1027.06 1027.50 1027.95 1028.40 1028.86 1029.32 1029.78 1030.24 1030.69 1031.12 1031.52 1031.88 1032.18 1032.44 1032.64 1032.79 1032.89 1032.96 1032.99 1033.00 1032.99
1020.26 1020.53 1020.80 1021.06 1021.29 1021.50 1021.67 1021.82 1021.95 1022.07 1022.19 1022.34 1022.51 1022.72 1022.97 1023.27 1023.60 1023.98 1024.38 1024.81 1025.26 1025.72 1026.19 1026.67 1027.16 1027.64 1028.14 1028.64 1029.13 1029.62 1030.09 1030.54 1030.96 1031.33 1031.67 1031.96 1032.20 1032.40 1032.56 1032.69 1032.79 1032.87 1032.92
1020.41 1020.60 1020.78 1020.95 1021.11 1021.24 1021.34 1021.43 1021.51 1021.58 1021.66 1021.76 1021.89 1022.06 1022.27 1022.53 1022.84 1023.18 1023.57 1023.99 1024.44 1024.91 1025.39 1025.89 1026.40 1026.91 1027.44 1027.96 1028.48 1028.99 1029.48 1029.95 1030.38 1030.78 1031.14 1031.46 1031.74 1031.99 1032.20 1032.38 1032.53 1032.66 1032.77
1020.52 1020.62 1020.71 1020.81 1020.89 1020.96 1021.01 1021.06 1021.09 1021.13 1021.18 1021.25 1021.36 1021.50 1021.68 1021.91 1022.19 1022.51 1022.87 1023.27 1023.70 1024.16 1024.64 1025.14 1025.66 1026.19 1026.73 1027.27 1027.81 1028.34 1028.85 1029.34 1029.80 1030.22 1030.61 1030.96 1031.27 1031.55 1031.79 1032.01 1032.21 1032.38 1032.53
1020.50 1020.52 1020.55 1020.58 1020.61 1020.63 1020.65 1020.67 1020.69 1020.72 1020.75 1020.81 1020.90 1021.03 1021.19 1021.39 1021.64 1021.93 1022.26 1022.62 1023.03 1023.46 1023.93 1024.42 1024.93 1025.46 1026.01 1026.56 1027.12 1027.67 1028.20 1028.71 1029.20 1029.65 1030.06 1030.43 1030.77 1031.08 1031.35 1031.60 1031.82 1032.02 1032.20
Thickness
5713 5712 5711 5709 5708 5707 5705 5703 5702 5700 5698 5697 5695 5693 5691 5689 5687 5685 5682 5681 5679 5677 5675 5673 5671 5670 5668 5667 5665 5662 5660 5656 5648 5646 5646 5646 5645 5643 5641 5641 5639 5638 5636
5710 5709 5707 5706 5704 5703 5701 5700 5699 5696 5695 5694 5693 5691 5688 5686 5684 5681 5678 5677 5674 5672 5671 5669 5666 5666 5663 5662 5660 5658 5655 5653 5647 5641 5640 5640 5639 5639 5638 5636 5635 5634 5632
5707 5705 5703 5702 5700 5699 5697 5697 5695 5694 5692 5691 5689 5687 5685 5682 5680 5678 5675 5673 5671 5669 5667 5664 5662 5661 5658 5657 5655 5653 5651 5650 5645 5640 5636 5636 5635 5635 5633 5632 5631 5629 5628
5702 5701 5699 5698 5697 5695 5694 5693 5691 5690 5689 5687 5685 5683 5681 5679 5677 5674 5672 5669 5667 5664 5663 5660 5658 5656 5654 5653 5651 5649 5647 5643 5640 5636 5633 5631 5630 5629 5628 5625 5624 5624 5623
5697 5695 5695 5695 5693 5692 5690 5688 5687 5685 5685 5683 5681 5679 5677 5674 5672 5669 5667 5665 5662 5659 5657 5655 5653 5652 5651 5649 5647 5644 5642 5638 5635 5632 5628 5626 5624 5622 5621 5621 5619 5618 5617
5693 5691 5691 5690 5688 5687 5685 5684 5682 5680 5679 5678 5676 5673 5671 5669 5667 5665 5663 5660 5658 5655 5652 5651 5649 5647 5646 5644 5642 5640 5638 5635 5631 5628 5624 5621 5619 5619 5618 5618 5614 5612 5609
5688 5687 5686 5685 5683 5682 5681 5679 5677 5675 5674 5672 5671 5668 5666 5663 5662 5660 5659 5657 5654 5652 5650 5648 5646 5643 5641 5639 5637 5635 5633 5631 5630 5626 5621 5619 5617 5616 5615 5613 5610 5607 5604
5683 5682 5682 5680 5679 5678 5676 5674 5672 5671 5669 5667 5666 5664 5661 5659 5658 5656 5654 5652 5649 5648 5646 5644 5641 5638 5637 5634 5632 5629 5627 5625 5625 5622 5620 5618 5616 5615 5613 5611 5608 5605 5602
5678 5677 5677 5676 5675 5673 5671 5669 5668 5666 5665 5663 5662 5660 5657 5655 5654 5652 5650 5647 5644 5643 5641 5640 5637 5634 5633 5631 5628 5624 5622 5620 5619 5618 5617 5615 5614 5612 5609 5606 5602 5598 5593
5674 5674 5674 5673 5671 5669 5668 5666 5665 5663 5661 5659 5658 5656 5654 5652 5650 5648 5646 5643 5640 5638 5636 5634 5633 5631 5629 5627 5623 5621 5617 5616 5615 5612 5611 5609 5608 5606 5603 5601 5597 5592 5587
5671 5671 5670 5669 5668 5667 5665 5663 5661 5659 5657 5655 5653 5652 5650 5648 5646 5645 5642 5640 5636 5634 5631 5628 5627 5626 5624 5622 5620 5617 5615 5613 5611 5608 5606 5603 5601 5599 5597 5594 5592 5588 5583
5666 5665 5665 5665 5665 5664 5661 5659 5658 5655 5652 5650 5649 5647 5645 5644 5642 5640 5638 5636 5634 5630 5627 5625 5623 5621 5619 5617 5615 5613 5612 5610 5606 5603 5600 5597 5595 5592 5590 5588 5585 5583 5580
5661 5660 5660 5661 5660 5660 5658 5655 5654 5652 5649 5647 5645 5642 5640 5639 5637 5636 5633 5632 5629 5626 5624 5621 5619 5616 5614 5611 5610 5608 5606 5604 5601 5597 5594 5592 5590 5588 5585 5582 5578 5575 5573
5656 5656 5656 5655 5655 5655 5653 5652 5649 5647 5645 5643 5641 5639 5637 5635 5633 5631 5628 5626 5623 5621 5618 5616 5614 5611 5608 5606 5604 5602 5600 5598 5596 5593 5590 5588 5585 5582 5578 5576 5571 5568 5564
5652 5651 5651 5651 5650 5649 5648 5647 5646 5645 5643 5641 5639 5637 5634 5632 5632 5630 5626 5623 5620 5617 5613 5609 5606 5603 5601 5599 5598 5596 5594 5593 5591 5588 5585 5582 5579 5576 5572 5569 5565 5561 5557
5647 5646 5646 5646 5645 5644 5642 5640 5640 5640 5639 5638 5637 5635 5633 5632 5630 5627 5624 5621 5617 5614 5610 5606 5603 5600 5598 5596 5593 5591 5589 5587 5586 5583 5580 5577 5574 5570 5566 5563 5559 5555 5551
5643 5642 5641 5641 5640 5639 5638 5635 5633 5632 5632 5632 5632 5630 5629 5627 5625 5622 5619 5616 5612 5609 5605 5603 5600 5598 5595 5593 5590 5587 5585 5584 5581 5578 5575 5572 5568 5565 5561 5557 5552 5549 5545
5639 5638 5637 5636 5636 5635 5634 5633 5631 5628 5625 5624 5625 5624 5623 5621 5619 5616 5612 5608 5605 5603 5601 5599 5597 5595 5592 5590 5587 5584 5582 5579 5577 5574 5570 5567 5563 5559 5555 5551 5547 5543 5540
5634 5633 5633 5632 5631 5631 5629 5628 5627 5625 5623 5620 5619 5617 5616 5613 5611 5609 5606 5604 5602 5600 5598 5596 5594 5592 5590 5587 5584 5581 5578 5575 5572 5569 5565 5562 5558 5554 5550 5546 5542 5539 5534
5628 5628 5627 5626 5625 5625 5624 5622 5621 5620 5618 5616 5614 5612 5609 5605 5603 5601 5600 5600 5599 5597 5595 5593 5590 5588 5586 5583 5580 5577 5574 5570 5567 5564 5560 5557 5553 5549 5545 5541 5537 5533 5529
5622 5621 5621 5620 5619 5619 5618 5617 5616 5615 5613 5612 5611 5609 5607 5604 5602 5600 5597 5596 5595 5594 5591 5589 5587 5584 5581 5578 5575 5572 5569 5566 5563 5559 5556 5552 5548 5544 5540 5536 5533 5528 5524
5615 5615 5614 5613 5613 5613 5612 5612 5611 5610 5609 5607 5605 5603 5601 5600 5598 5597 5595 5593 5592 5590 5588 5585 5583 5580 5577 5575 5572 5568 5565 5562 5558 5554 5551 5548 5544 5540 5535 5531 5527 5523 5518
5608 5608 5607 5607 5606 5606 5605 5605 5605 5604 5603 5602 5600 5598 5596 5595 5594 5593 5591 5589 5587 5585 5583 5581 5578 5576 5573 5571 5568 5564 5561 5558 5555 5551 5547 5543 5539 5535 5531 5526 5522 5518 5513
5601 5601 5600 5599 5598 5598 5598 5598 5599 5598 5597 5596 5595 5593 5592 5590 5589 5588 5586 5584 5582 5580 5578 5576 5573 5571 5568 5566 5563 5560 5557 5554 5550 5546 5542 5539 5535 5531 5526 5522 5518 5513 5508
5593 5593 5593 5592 5591 5591 5591 5591 5591 5591 5590 5590 5589 5588 5586 5585 5583 5582 5580 5578 5576 5574 5572 5570 5568 5565 5563 5560 5557 5555 5552 5548 5545 5541 5537 5534 5530 5526 5522 5517 5513 5508 5503
5584 5585 5585 5584 5584 5584 5583 5583 5583 5583 5583 5582 5582 5581 5580 5579 5577 5576 5574 5572 5570 5567 5565 5564 5561 5559 5557 5554 5551 5548 5545 5542 5539 5536 5532 5529 5525 5521 5517 5513 5509 5504 5499